Jordan, MT

4:08 AM MDT on April 19, 2018 (GMT -0600)
Jordan

Weather History for KJDN - April, 2014

Change the Weather History Date:

Saturday, April 19, 2014

  Actual Average Record
Temperature  
Mean Temperature 50 °F 45 °F  
Max Temperature 65 °F 59 °F 87 °F (1910)
Min Temperature 34 °F 31 °F 9 °F (1941)
Degree Days  
Heating Degree Days 15 20  
Month to date heating degree days 465 429  
Since 1 July heating degree days 7878 7531  
Cooling Degree Days 0 0  
Month to date cooling degree days 0 0  
Year to date cooling degree days 0 0  
Moisture  
Dew Point 23 °F    
Average Humidity 42    
Maximum Humidity 70    
Minimum Humidity 14    
Precipitation  
Precipitation 0.00 in 0.03 in 1.33 in (2005)
Month to date precipitation 0.08 0.55  
Year to date precipitation 1.35 1.55  
Snow  
Snow 0.00 in - - ()
Month to date snowfall 0.0  
Since 1 July snowfall 0.0  
Snow Depth 0.00 in    
Sea Level Pressure  
Sea Level Pressure 29.91 in    
Wind  
Wind Speed 9 mph (West)    
Max Wind Speed 20 mph    
Max Gust Speed 29 mph    
T = Trace of Precipitation, MM = Missing Value Source: NWS Daily Summary

Daily Weather History Graph

Daily Weather History Graph

Search for Another Location

Airport or City:

Astronomy

Apr. 19, 2014 Rise Set
Actual Time 6:11 AM MDT 8:02 PM MDT
Civil Twilight 5:39 AM MDT 8:35 PM MDT
Nautical Twilight 4:59 AM MDT 9:15 PM MDT
Astronomical Twilight 4:15 AM MDT 9:59 PM MDT
Moon No Moon Rise 9:23 AM MDT
Length of Visible Light 14h 56m
Length of Day
13h 50m
Waning Gibbous, 78% of the Moon is Illuminated
Apr 19
Waning Gibbous
Apr 22
Last Quarter
Apr 29
New
May 6
First Quarter
May 14
Full

Hourly Weather History & Observations

Time (MDT) Temp. Windchill Dew Point Humidity Pressure Visibility Wind Dir Wind Speed Gust Speed Precip Events Conditions
12:48 AM 41.0 °F 31.9 °F 24.1 °F 51% 29.82 in - West 19.6 mph 25.3 mph N/A   Unknown
1:48 AM 37.9 °F 32.1 °F 23.0 °F 55% 29.84 in - West 8.1 mph - N/A   Unknown
2:48 AM 39.0 °F 31.8 °F 23.0 °F 53% 29.84 in - WSW 11.5 mph 21.9 mph N/A   Unknown
3:48 AM 37.9 °F 30.0 °F 23.0 °F 55% 29.87 in - West 12.7 mph - N/A   Unknown
4:48 AM 39.0 °F 31.0 °F 23.0 °F 53% 29.89 in - West 13.8 mph - N/A   Unknown
5:48 AM 36.0 °F 28.5 °F 23.0 °F 59% 29.92 in - West 10.4 mph - N/A   Unknown
6:48 AM 34.0 °F 28.0 °F 24.1 °F 67% 29.97 in - WNW 6.9 mph - N/A   Unknown
7:48 AM 39.9 °F 33.9 °F 26.1 °F 58% 29.99 in - West 9.2 mph - N/A   Unknown
8:48 AM 46.9 °F - 27.0 °F 46% 29.98 in - West 9.2 mph - N/A   Unknown
9:48 AM 51.1 °F - 28.0 °F 41% 29.99 in - West 13.8 mph - N/A   Unknown
10:48 AM 54.0 °F - 27.0 °F 35% 29.98 in - WNW 15.0 mph 24.2 mph N/A   Unknown
11:48 AM 55.9 °F - 27.0 °F 33% 29.98 in - West 17.3 mph 23.0 mph N/A   Unknown
12:48 PM 57.9 °F - 26.1 °F 30% 29.96 in - West 16.1 mph - N/A   Unknown
1:48 PM 59.0 °F - 23.0 °F 25% 29.95 in - WSW 10.4 mph 18.4 mph N/A   Unknown
2:48 PM 61.0 °F - 21.0 °F 21% 29.94 in - West 9.2 mph 19.6 mph N/A   Unknown
3:48 PM 62.1 °F - 18.0 °F 18% 29.92 in - West 15.0 mph 19.6 mph N/A   Unknown
4:48 PM 63.0 °F - 16.0 °F 16% 29.90 in - West 13.8 mph 19.6 mph N/A   Unknown
5:48 PM 64.0 °F - 16.0 °F 16% 29.89 in - WSW 9.2 mph - N/A   Unknown
6:48 PM 63.0 °F - 14.0 °F 15% 29.88 in - SSW 4.6 mph - N/A   Unknown
7:48 PM 48.9 °F - 25.0 °F 39% 29.89 in - Calm Calm - N/A   Unknown
8:48 PM 53.1 °F - 21.0 °F 29% 29.88 in - East 4.6 mph - N/A   Unknown
9:48 PM 46.0 °F - 24.1 °F 42% 29.89 in - Calm Calm - N/A   Unknown
10:48 PM 39.9 °F - 25.0 °F 55% 29.89 in - Calm Calm - N/A   Unknown
11:48 PM 36.0 °F - 26.1 °F 67% 29.89 in - Calm Calm - N/A   Unknown